ASA807 KLAS-PHNL

Flight info

Callsign ASA807
Flight time N/A
Altitude 40000
Route JOHKR5 KENNO OAK BEBOP R464 BITTA MAGGI3
Aircraft A332/H-SDE3GHIJ2J3J5M1RVWXY/LB2D1

Departure

Time 2026-05-05 19:35
Airport Harry Reid International Airport (KLAS)

Arrival

Time N/A
Airport Daniel K. Inouye International Airport (PHNL)
Time Latitude Longitude Altitude Speed Heading
2026-05-05 19:08 36.08125 -115.13980 2097 ft 0 kts 142°
2026-05-05 19:24 36.08127 -115.13982 2097 ft 3 kts 142°
2026-05-05 19:24 36.08147 -115.14001 2097 ft 3 kts 142°
2026-05-05 19:24 36.08161 -115.14017 2097 ft 4 kts 99°
2026-05-05 19:25 36.08162 -115.14047 2097 ft 2 kts 90°
2026-05-05 19:25 36.08162 -115.14078 2097 ft 4 kts 90°
2026-05-05 19:25 36.08162 -115.14111 2098 ft 4 kts 90°
2026-05-05 19:25 36.08162 -115.14142 2099 ft 4 kts 100°
2026-05-05 19:26 36.08173 -115.14159 2099 ft 4 kts 178°
2026-05-05 19:26 36.08197 -115.14159 2099 ft 3 kts 180°
2026-05-05 19:26 36.08200 -115.14159 2099 ft 0 kts 180°
2026-05-05 19:29 36.08187 -115.14159 2099 ft 4 kts 180°
2026-05-05 19:29 36.08153 -115.14159 2099 ft 5 kts 180°
2026-05-05 19:29 36.08112 -115.14159 2098 ft 6 kts 180°
2026-05-05 19:30 36.08065 -115.14159 2098 ft 7 kts 180°
2026-05-05 19:30 36.07999 -115.14159 2098 ft 12 kts 180°
2026-05-05 19:30 36.07902 -115.14159 2098 ft 16 kts 180°
2026-05-05 19:30 36.07827 -115.14082 2097 ft 16 kts 91°
2026-05-05 19:31 36.07828 -115.13936 2097 ft 18 kts 90°
2026-05-05 19:31 36.07828 -115.13767 2096 ft 21 kts 90°
2026-05-05 19:31 36.07828 -115.13588 2095 ft 21 kts 90°
2026-05-05 19:31 36.07828 -115.13399 2093 ft 23 kts 89°
2026-05-05 19:32 36.07828 -115.13196 2089 ft 25 kts 90°
2026-05-05 19:32 36.07828 -115.12987 2077 ft 24 kts 90°
2026-05-05 19:32 36.07829 -115.12770 2072 ft 23 kts 90°
2026-05-05 19:32 36.07829 -115.12560 2064 ft 26 kts 90°
2026-05-05 19:33 36.07829 -115.12355 2059 ft 21 kts 90°
2026-05-05 19:33 36.07786 -115.12199 2055 ft 20 kts 126°
2026-05-05 19:33 36.07685 -115.12120 2051 ft 17 kts 175°
2026-05-05 19:33 36.07642 -115.12190 2053 ft 10 kts 269°
2026-05-05 19:34 36.07642 -115.12272 2055 ft 15 kts 270°
2026-05-05 19:34 36.07641 -115.12628 2068 ft 70 kts 270°
2026-05-05 19:34 36.07640 -115.13456 2093 ft 122 kts 270°
2026-05-05 19:35 36.07638 -115.16303 2459 ft 194 kts 269°
2026-05-05 19:35 36.07603 -115.17978 3319 ft 195 kts 267°
2026-05-05 19:35 36.07588 -115.19641 4106 ft 201 kts 268°
2026-05-05 19:35 36.07593 -115.21458 4523 ft 222 kts 269°
2026-05-05 19:36 36.07598 -115.23449 4941 ft 239 kts 269°
2026-05-05 19:36 36.07597 -115.25539 5613 ft 246 kts 269°
2026-05-05 19:36 36.07503 -115.27687 6264 ft 257 kts 259°
2026-05-05 19:36 36.06868 -115.29785 6866 ft 267 kts 238°
2026-05-05 19:37 36.05765 -115.31664 7608 ft 272 kts 231°
2026-05-05 19:37 36.04558 -115.33461 8394 ft 278 kts 230°
2026-05-05 19:37 36.03284 -115.35302 9170 ft 285 kts 230°
2026-05-05 19:37 36.01977 -115.37178 9927 ft 291 kts 230°
2026-05-05 19:38 36.00646 -115.39083 10571 ft 294 kts 230°
2026-05-05 19:38 35.99307 -115.41000 10918 ft 295 kts 230°
2026-05-05 19:38 35.97962 -115.42922 10999 ft 297 kts 230°
2026-05-05 19:38 35.96612 -115.44852 11000 ft 297 kts 230°
2026-05-05 19:39 35.95260 -115.46784 10994 ft 298 kts 230°
2026-05-05 19:39 35.93905 -115.48721 10996 ft 298 kts 230°
2026-05-05 19:39 35.92550 -115.50655 10993 ft 297 kts 230°
2026-05-05 19:39 35.91195 -115.52589 11002 ft 298 kts 230°
2026-05-05 19:40 35.89878 -115.54562 10999 ft 297 kts 236°
2026-05-05 19:40 35.89055 -115.56839 11200 ft 297 kts 259°
2026-05-05 19:40 35.88885 -115.59440 11476 ft 314 kts 271°
2026-05-05 19:40 35.88928 -115.62217 11773 ft 333 kts 272°
2026-05-05 19:41 35.89004 -115.65138 12268 ft 345 kts 272°
2026-05-05 19:41 35.89076 -115.68126 12943 ft 350 kts 271°
2026-05-05 19:41 35.89142 -115.71153 13697 ft 354 kts 271°
2026-05-05 19:41 35.89202 -115.74205 14352 ft 358 kts 271°
2026-05-05 19:42 35.89259 -115.77254 14976 ft 362 kts 271°
2026-05-05 19:42 35.89316 -115.80386 15586 ft 367 kts 272°
2026-05-05 19:42 35.89372 -115.83557 16240 ft 371 kts 272°
2026-05-05 19:42 35.89427 -115.86753 16887 ft 375 kts 272°
2026-05-05 19:43 35.89623 -115.89971 17550 ft 377 kts 280°
2026-05-05 19:43 35.90299 -115.93103 18147 ft 380 kts 293°
2026-05-05 19:43 35.91543 -115.95985 18662 ft 381 kts 306°
2026-05-05 19:43 35.93256 -115.98491 19097 ft 383 kts 315°
2026-05-05 19:44 35.95116 -116.00801 19635 ft 386 kts 317°
2026-05-05 19:44 35.97045 -116.03149 20089 ft 391 kts 317°
2026-05-05 19:44 35.98989 -116.05522 20651 ft 394 kts 316°
2026-05-05 19:44 36.00944 -116.07918 21210 ft 397 kts 316°
2026-05-05 19:45 36.02905 -116.10331 21762 ft 399 kts 316°
2026-05-05 19:45 36.04874 -116.12762 22280 ft 402 kts 316°
2026-05-05 19:45 36.06866 -116.15225 22750 ft 405 kts 316°
2026-05-05 19:45 36.08863 -116.17698 23257 ft 408 kts 316°
2026-05-05 19:46 36.10852 -116.20164 23691 ft 411 kts 316°
2026-05-05 19:46 36.12883 -116.22683 24085 ft 414 kts 317°
2026-05-05 19:46 36.14925 -116.25218 24457 ft 417 kts 317°
2026-05-05 19:46 36.16978 -116.27769 24867 ft 420 kts 317°
2026-05-05 19:47 36.19050 -116.30346 25295 ft 421 kts 317°
2026-05-05 19:47 36.21127 -116.32931 25689 ft 424 kts 317°
2026-05-05 19:47 36.23213 -116.35530 26068 ft 427 kts 317°
2026-05-05 19:47 36.25286 -116.38114 26445 ft 429 kts 317°
2026-05-05 19:48 36.27402 -116.40754 26822 ft 432 kts 318°
2026-05-05 19:48 36.29551 -116.43366 27185 ft 434 kts 319°
2026-05-05 19:48 36.31743 -116.45973 27494 ft 438 kts 320°
2026-05-05 19:48 36.33951 -116.48593 27858 ft 441 kts 320°
2026-05-05 19:49 36.36183 -116.51244 28219 ft 444 kts 320°
2026-05-05 19:49 36.37660 -116.53002 28465 ft 445 kts 320°
2026-05-05 19:49 36.40666 -116.56580 28968 ft 449 kts 321°
2026-05-05 19:49 36.42906 -116.59251 29328 ft 452 kts 321°
2026-05-05 19:50 36.45198 -116.61947 29676 ft 455 kts 322°
2026-05-05 19:50 36.47538 -116.64616 29974 ft 458 kts 323°
2026-05-05 19:50 36.49909 -116.67304 30214 ft 462 kts 323°
2026-05-05 19:50 36.52295 -116.70011 30526 ft 464 kts 323°
2026-05-05 19:51 36.54679 -116.72722 30857 ft 465 kts 323°
2026-05-05 19:51 36.57074 -116.75449 31149 ft 468 kts 323°
2026-05-05 19:51 36.59479 -116.78187 31448 ft 471 kts 323°
2026-05-05 19:51 36.61898 -116.80947 31776 ft 472 kts 323°
2026-05-05 19:52 36.64291 -116.83680 32096 ft 473 kts 323°
2026-05-05 19:52 36.66708 -116.86445 32489 ft 472 kts 324°
2026-05-05 19:52 36.69124 -116.89210 32891 ft 470 kts 324°
2026-05-05 19:52 36.71528 -116.91956 33389 ft 466 kts 325°
2026-05-05 19:53 36.74053 -116.94443 33739 ft 459 kts 333°
2026-05-05 19:53 36.76792 -116.96454 34040 ft 454 kts 338°
2026-05-05 19:53 36.79580 -116.98284 34314 ft 453 kts 338°
2026-05-05 19:53 36.82379 -117.00088 34561 ft 454 kts 339°
2026-05-05 19:54 36.85189 -117.01900 34894 ft 453 kts 339°
2026-05-05 19:54 36.87989 -117.03709 35198 ft 453 kts 338°
2026-05-05 19:54 36.90779 -117.05517 35458 ft 453 kts 338°
2026-05-05 19:54 36.93582 -117.07336 35714 ft 454 kts 338°
2026-05-05 19:55 36.96385 -117.09157 35967 ft 454 kts 337°
2026-05-05 19:55 36.99192 -117.10982 36223 ft 455 kts 337°
2026-05-05 19:55 37.02006 -117.12815 36481 ft 455 kts 337°
2026-05-05 19:55 37.04777 -117.14622 36771 ft 454 kts 337°
2026-05-05 19:56 37.07581 -117.16451 37023 ft 454 kts 336°
2026-05-05 19:56 37.10392 -117.18287 37262 ft 455 kts 336°
2026-05-05 19:56 37.13194 -117.20119 37536 ft 454 kts 336°
2026-05-05 19:56 37.15996 -117.21951 37777 ft 454 kts 335°
2026-05-05 19:57 37.18800 -117.23787 38002 ft 454 kts 335°
2026-05-05 19:57 37.20661 -117.25010 38156 ft 454 kts 335°
2026-05-05 19:57 37.24226 -117.27884 38491 ft 459 kts 324°
2026-05-05 19:57 37.26531 -117.30594 38647 ft 463 kts 314°
2026-05-05 19:58 37.28473 -117.33836 38814 ft 467 kts 304°
2026-05-05 19:58 37.29949 -117.37488 38984 ft 471 kts 294°
2026-05-05 19:58 37.30898 -117.41432 39171 ft 473 kts 283°
2026-05-05 19:58 37.31477 -117.45494 39370 ft 474 kts 281°
2026-05-05 19:59 37.31948 -117.49594 39562 ft 473 kts 279°
2026-05-05 19:59 37.32366 -117.53702 39741 ft 473 kts 279°
2026-05-05 19:59 37.32765 -117.57799 39871 ft 474 kts 279°
2026-05-05 20:00 37.33583 -117.66074 39900 ft 479 kts 279°
2026-05-05 20:00 37.34436 -117.74382 39908 ft 479 kts 279°
2026-05-05 20:01 37.35299 -117.82684 39907 ft 479 kts 279°
2026-05-05 20:01 37.36156 -117.90937 39914 ft 479 kts 279°
2026-05-05 20:02 37.37011 -117.99245 39913 ft 478 kts 279°
2026-05-05 20:02 37.37858 -118.07536 39915 ft 478 kts 279°